Location: *
(17.3280°S, 114.7300°W)
Time: 06:40:09
(UTC+00:00)

ATLAS 2AS CENTAUR R/B - Pass Details

Date: 05 August 2020
Orbit: 938 x 1273 km, 63.7° (Epoch: 18 September)

Event Time Altitude Azimuth Distance (km) Brightness Sun altitude
Exits shadow 13:28:59 - 217° (SW) 3,755 5.1 -8.6°
Reaches altitude 10° 13:31:17 10° 223° (SW) 2,987 4.5 -8.1°
Maximum altitude 13:37:59 44° 292° (WNW) 1,579 3.3 -6.5°
Drops below altitude 10° 13:45:08 10° 1° (N) 3,178 5.4 -4.9°
Sets 13:48:08 0° 7° (N) 4,170 6.1 -4.2°
